[TLELIST]

Mailing List Information:

  • This mailing list is a public mailing list - anyone may join or leave, at any time.

  • This mailing list is announce-only.

International Space Station (ISS) / Hubble Space Telescope (HST) / Chandra X-Ray Observatory Orbital Data via EMAIL

Privacy Policy:

Private list

Archives:

[TLELIST] Current TLEs

Sent July 20th 2018

HST 1 20580U 90037B 18200.75924769 .00000359 00000-0 10969-4 0 9990 2 20580 28.4687 259.7857 0002886 126.7397 166.4988 15.09066870350398 ISS (ZARYA) 1 25544U 98067A 18201.39566696 .00001388 00000-0 28343-4 0 9996 2 25544 51.6403 213.1878 0004000 338.0627 98.4756 15.53995152123688 CXO 1 25867U 99040B 18203.66672164 +.00000447 +00000-0 +00000-0 0 9997 2 25867 071.0655 282.2493 6899735 241.4946 000.0880 00.37802935006426 ____________________________________________________________________ These 2-Line ...

[TLELIST] Current TLEs

Sent July 19th 2018

HST 1 20580U 90037B 18199.60850068 .00000376 00000-0 12011-4 0 9990 2 20580 28.4690 267.3930 0002915 115.3684 33.8884 15.09066514350224 ISS (ZARYA) 1 25544U 98067A 18200.44376446 .00001619 00000-0 31854-4 0 9991 2 25544 51.6403 217.9325 0004003 334.3383 173.3715 15.53992638123536 CXO 1 25867U 99040B 18201.02199797 +.00000457 +00000-0 +00000-0 0 9992 2 25867 071.0980 282.3149 6900511 241.5440 000.0715 00.37806432006413 ____________________________________________________________________ These 2-Line ...

[TLELIST] Current TLEs

Sent July 18th 2018

HST 1 20580U 90037B 18198.67983741 +.00000408 +00000-0 +13980-4 0 9993 2 20580 028.4691 273.5322 0002936 105.9369 028.2313 15.09066293349998 ISS (ZARYA) 1 25544U 98067A 18199.46848943 .00001437 00000-0 29093-4 0 9996 2 25544 51.6397 222.7926 0003928 330.2385 117.8073 15.53987811123381 CXO 1 25867U 99040B 18201.02199797 +.00000457 +00000-0 +00000-0 0 9992 2 25867 071.0980 282.3149 6900511 241.5440 000.0715 00.37806432006413 ____________________________________________________________________ These 2-Line ...

[TLELIST] Current TLEs

Sent July 17th 2018

HST 1 20580U 90037B 18197.68722087 +.00000394 +00000-0 +13123-4 0 9990 2 20580 028.4693 280.0939 0002942 096.4874 034.4695 15.09065753349845 ISS (ZARYA) 1 25544U 98067A 18198.44885975 .00001400 00000-0 28528-4 0 9991 2 25544 51.6393 227.8755 0003930 326.0197 174.0781 15.53983603123229 CXO 1 25867U 99040B 18198.37742795 +.00000506 +00000-0 +00000-0 0 9992 2 25867 071.1335 282.3896 6899718 241.5798 000.1264 00.37807002006402 ____________________________________________________________________ These 2-Line ...

[TLELIST] Current TLEs

Sent July 16th 2018

HST 1 20580U 90037B 18196.69452146 .00000378 00000-0 12121-4 0 9995 2 20580 28.4694 286.6565 0002947 86.5802 40.7154 15.09065195349782 ISS (ZARYA) 1 25544U 98067A 18197.43004630 .00000063 00000-0 82375-5 0 9995 2 25544 51.6389 232.9525 0004044 322.7389 233.9945 15.53977606123064 CXO 1 25867U 99040B 18198.37742795 +.00000506 +00000-0 +00000-0 0 9992 2 25867 071.1335 282.3896 6899718 241.5798 000.1264 00.37807002006402 ____________________________________________________________________ These 2-Line ...

[TLELIST] Current TLEs

Sent July 15th 2018

HST 1 20580U 90037B 18195.70743646 +.00000382 +00000-0 +12400-4 0 9999 2 20580 028.4696 293.1821 0002946 076.4240 077.7739 15.09064812349543 ISS (ZARYA) 1 25544U 98067A 18196.52165053 .00001024 00000-0 22830-4 0 9998 2 25544 51.6396 237.4804 0003914 318.3778 193.1289 15.53975241122925 CXO 1 25867U 99040B 18198.37742795 +.00000506 +00000-0 +00000-0 0 9992 2 25867 071.1335 282.3896 6899718 241.5798 000.1264 00.37807002006402 ____________________________________________________________________ These 2-Line ...

[TLELIST] Current TLEs

Sent July 14th 2018

HST 1 20580U 90037B 18194.64527209 +.00000387 +00000-0 +12719-4 0 9994 2 20580 028.4697 300.2038 0002942 065.7308 066.6846 15.09064415349383 ISS (ZARYA) 1 25544U 98067A 18195.41476146 .00000762 00000-0 18861-4 0 9990 2 25544 51.6390 242.9993 0003923 313.4845 121.6380 15.53970855122755 CXO 1 25867U 99040B 18195.73332803 .00000566 00000-0 00000+0 0 9999 2 25867 71.1675 282.4685 6896001 241.6098 0.2597 0.37802379 17530 ____________________________________________________________________ These 2-Line ...

[TLELIST] Current TLEs

Sent July 13th 2018

HST 1 20580U 90037B 18194.09082177 .00000387 00000-0 12661-4 0 9999 2 20580 28.4698 303.8691 0002934 60.0619 294.2611 15.09064203349386 ISS (ZARYA) 1 25544U 98067A 18194.39307226 .00000801 00000-0 19448-4 0 9994 2 25544 51.6392 248.0932 0003947 309.7128 165.9920 15.53968353122598 CXO 1 25867U 99040B 18195.73332803 .00000566 00000-0 00000+0 0 9999 2 25867 71.1675 282.4685 6896001 241.6098 0.2597 0.37802379 17530 ____________________________________________________________________ These 2-Line ...

[TLELIST] Current TLEs

Sent July 12th 2018

HST 1 20580U 90037B 18192.76917614 .00000254 00000-0 45255-5 0 9993 2 20580 28.4702 312.6121 0003092 45.3505 314.7247 15.09063175349182 ISS (ZARYA) 1 25544U 98067A 18193.23435133 .00008226 00000-0 13208-3 0 9991 2 25544 51.6396 253.8728 0003847 305.2337 163.9651 15.53973896122419 CXO 1 25867U 99040B 18195.73332803 .00000566 00000-0 00000+0 0 9999 2 25867 71.1675 282.4685 6896001 241.6098 0.2597 0.37802379 17530 ____________________________________________________________________ These 2-Line ...

[TLELIST] Current TLEs

Sent July 11th 2018

HST 1 20580U 90037B 18191.80066000 +.00000376 +00000-0 +12000-4 0 9997 2 20580 028.4701 319.0086 0002892 036.8695 091.2005 15.09063205348951 ISS (ZARYA) 1 25544U 98067A 18192.20321045 -.00303248 00000-0 -47899-2 0 9999 2 25544 51.6378 259.0170 0003100 289.4288 167.4668 15.53898719122257 CXO 1 25867U 99040B 18193.08911347 .00000625 00000-0 00000+0 0 9997 2 25867 71.1960 282.5285 6890035 241.6619 0.3241 0.37796385 17529 ____________________________________________________________________ These 2-Line ...

< < Previous

Index

 

this list's archives:

(archive rss , atom rss/atom )

Administration